Radiation Dose at Monitoring Post of Fukushima Daini Nuclear Power Station
Date,Time,MP-1(microSv/h),MP-2(microSv/h),MP-3(microSv/h),MP-4(microSv/h),MP-5(microSv/h),MP-6(microSv/h),MP-7(microSv/h),Wind Direction,Wind Velocity(m/s),Rain
2016/06/12,00:00,0.428,0.253,0.446,0.404,0.379,0.205,0.180,south-southeast,1.0,No
2016/06/12,00:10,0.427,0.251,0.446,0.407,0.378,0.205,0.180,south-southwest,1.5,No
2016/06/12,00:20,0.430,0.252,0.445,0.404,0.380,0.206,0.179,south,1.4,No
2016/06/12,00:30,0.427,0.251,0.446,0.408,0.378,0.206,0.180,south,1.4,No
2016/06/12,00:40,0.428,0.252,0.446,0.405,0.379,0.207,0.180,south-southwest,2.7,No
2016/06/12,00:50,0.428,0.252,0.447,0.407,0.379,0.206,0.179,south,3.4,No
2016/06/12,01:00,0.428,0.251,0.444,0.405,0.380,0.207,0.180,south,3.9,No
2016/06/12,01:10,0.428,0.251,0.447,0.406,0.378,0.206,0.180,south-southwest,4.8,No
2016/06/12,01:20,0.427,0.252,0.444,0.406,0.379,0.206,0.181,south-southwest,5.3,No
2016/06/12,01:30,0.428,0.252,0.447,0.406,0.379,0.206,0.178,south,5.5,No
2016/06/12,01:40,0.428,0.253,0.442,0.405,0.378,0.207,0.180,south-southwest,5.8,No
2016/06/12,01:50,0.430,0.252,0.448,0.407,0.379,0.206,0.180,south-southwest,5.3,No
2016/06/12,02:00,0.428,0.252,0.445,0.405,0.378,0.206,0.180,south,3.6,No
2016/06/12,02:10,0.429,0.251,0.449,0.406,0.379,0.205,0.180,south-southwest,1.9,No
2016/06/12,02:20,0.427,0.253,0.444,0.408,0.379,0.207,0.180,south-southwest,0.8,No
2016/06/12,02:30,0.430,0.251,0.449,0.406,0.379,0.206,0.180,south-southwest,1.9,No
2016/06/12,02:40,0.428,0.253,0.445,0.406,0.378,0.207,0.181,south-southwest,2.1,No
2016/06/12,02:50,0.429,0.251,0.449,0.408,0.382,0.206,0.180,south,3.4,No
2016/06/12,03:00,0.428,0.254,0.446,0.406,0.379,0.207,0.180,south-southwest,4.4,No
2016/06/12,03:10,0.430,0.250,0.446,0.407,0.379,0.206,0.181,south-southwest,3.9,No
2016/06/12,03:20,0.427,0.253,0.444,0.406,0.377,0.206,0.181,south-southwest,3.8,No
2016/06/12,03:30,0.430,0.251,0.447,0.407,0.380,0.205,0.180,south,2.5,No
2016/06/12,03:40,0.427,0.252,0.445,0.405,0.378,0.206,0.181,south-southeast,1.9,No
2016/06/12,03:50,0.431,0.252,0.446,0.409,0.380,0.206,0.180,south-southwest,0.7,No
2016/06/12,04:00,0.427,0.255,0.445,0.405,0.377,0.207,0.181,-,CALM,No
2016/06/12,04:10,0.429,0.252,0.446,0.407,0.380,0.207,0.181,south,0.7,No
2016/06/12,04:20,0.428,0.254,0.446,0.406,0.378,0.207,0.180,south,1.2,No
2016/06/12,04:30,0.430,0.252,0.446,0.404,0.379,0.206,0.181,south,1.9,No
2016/06/12,04:40,0.427,0.254,0.445,0.403,0.378,0.207,0.180,south,1.9,No
2016/06/12,04:50,0.430,0.253,0.445,0.408,0.381,0.206,0.181,south-southwest,1.7,No
2016/06/12,05:00,0.428,0.253,0.447,0.406,0.378,0.207,0.180,south,2.2,No
2016/06/12,05:10,0.427,0.254,0.444,0.405,0.380,0.205,0.181,south-southwest,3.4,No
2016/06/12,05:20,0.427,0.252,0.448,0.405,0.377,0.206,0.179,south-southwest,4.0,No
2016/06/12,05:30,0.428,0.252,0.446,0.407,0.380,0.208,0.180,south-southwest,3.5,No
2016/06/12,05:40,0.430,0.251,0.449,0.407,0.377,0.206,0.180,south-southwest,2.7,No
2016/06/12,05:50,0.429,0.253,0.445,0.406,0.379,0.207,0.179,southwest,2.8,No
2016/06/12,06:00,0.428,0.250,0.448,0.407,0.381,0.206,0.181,south-southwest,3.6,No
2016/06/12,06:10,0.426,0.253,0.445,0.403,0.376,0.206,0.180,south,4.1,No
2016/06/12,06:20,0.430,0.253,0.446,0.407,0.380,0.206,0.180,south,1.9,No
2016/06/12,06:30,0.427,0.251,0.447,0.403,0.379,0.205,0.180,south-southwest,1.4,No
2016/06/12,06:40,0.429,0.254,0.444,0.406,0.379,0.208,0.180,southwest,0.8,No
2016/06/12,06:50,0.429,0.252,0.447,0.408,0.380,0.205,0.181,-,CALM,No
2016/06/12,07:00,0.427,0.254,0.444,0.402,0.376,0.207,0.180,-,CALM,No
2016/06/12,07:10,0.428,0.252,0.445,0.407,0.380,0.206,0.179,north,0.8,No
2016/06/12,07:20,0.424,0.252,0.446,0.404,0.378,0.206,0.180,north-northeast,0.8,No
2016/06/12,07:30,0.430,0.253,0.443,0.406,0.376,0.207,0.180,-,CALM,No
2016/06/12,07:40,0.427,0.251,0.448,0.408,0.381,0.206,0.180,south-southwest,0.6,No
2016/06/12,07:50,0.429,0.252,0.446,0.404,0.379,0.206,0.181,south-southeast,0.7,No
2016/06/12,08:00,0.429,0.253,0.442,0.403,0.374,0.206,0.179,south,0.8,No
2016/06/12,08:10,0.425,0.251,0.439,0.406,0.377,0.206,0.179,south,1.1,No
2016/06/12,08:20,0.428,0.250,0.444,0.406,0.381,0.205,0.178,south-southeast,2.3,No
2016/06/12,08:30,0.428,0.251,0.448,0.403,0.377,0.205,0.180,south-southeast,3.3,No
2016/06/12,08:40,0.426,0.252,0.444,0.401,0.375,0.206,0.179,south-southeast,4.0,No
2016/06/12,08:50,0.429,0.249,0.441,0.400,0.374,0.206,0.179,south,6.8,No
2016/06/12,09:00,0.426,0.250,0.443,0.404,0.376,0.205,0.176,south,8.9,No
2016/06/12,09:10,0.427,0.251,0.447,0.406,0.380,0.204,0.177,south,10.8,No
2016/06/12,09:20,0.429,0.251,0.445,0.404,0.377,0.206,0.180,south,12.7,No
2016/06/12,09:30,0.427,0.250,0.441,0.403,0.376,0.205,0.179,south,12.9,No
2016/06/12,09:40,0.423,0.249,0.443,0.403,0.374,0.205,0.178,south,13.0,No
2016/06/12,09:50,0.422,0.248,0.447,0.403,0.375,0.204,0.178,south-southeast,12.6,No
2016/06/12,10:00,0.421,0.251,0.445,0.400,0.381,0.204,0.177,south,11.2,No
2016/06/12,10:10,0.429,0.252,0.442,0.400,0.379,0.205,0.176,south,12.1,No
2016/06/12,10:20,0.429,0.251,0.441,0.402,0.376,0.205,0.178,south,11.6,No
2016/06/12,10:30,0.426,0.251,0.441,0.400,0.375,0.205,0.179,south,12.7,No
2016/06/12,10:40,0.424,0.250,0.440,0.402,0.373,0.203,0.179,south,12.7,No
2016/06/12,10:50,0.423,0.248,0.441,0.403,0.374,0.204,0.178,south,13.6,No
2016/06/12,11:00,0.422,0.249,0.441,0.404,0.376,0.206,0.177,south,15.7,No
2016/06/12,11:10,0.424,0.252,0.439,0.408,0.381,0.205,0.180,south,15.2,No
2016/06/12,11:20,0.429,0.252,0.444,0.409,0.379,0.204,0.179,south,14.9,No
2016/06/12,11:30,0.429,0.251,0.448,0.407,0.378,0.204,0.178,south,14.9,No
2016/06/12,11:40,0.426,0.249,0.447,0.405,0.375,0.205,0.177,south,14.0,No
2016/06/12,11:50,0.424,0.248,0.446,0.403,0.375,0.205,0.178,south,14.2,No
2016/06/12,12:00,0.425,0.252,0.443,0.404,0.380,0.205,0.179,south,12.8,No
2016/06/12,12:10,0.423,0.252,0.442,0.408,0.379,0.205,0.178,south,14.3,No
2016/06/12,12:20,0.430,0.251,0.442,0.407,0.377,0.205,0.179,south,13.2,No
2016/06/12,12:30,0.429,0.250,0.442,0.404,0.376,0.204,0.179,south,13.9,No
2016/06/12,12:40,0.428,0.250,0.441,0.405,0.375,0.206,0.178,south,14.9,No
2016/06/12,12:50,0.426,0.249,0.442,0.404,0.374,0.206,0.177,south,13.3,No
2016/06/12,13:00,0.424,0.251,0.442,0.403,0.376,0.204,0.178,south,12.0,No
2016/06/12,13:10,0.424,0.253,0.444,0.404,0.382,0.204,0.179,south,12.7,No
2016/06/12,13:20,0.430,0.252,0.442,0.409,0.380,0.206,0.178,south,13.8,No
2016/06/12,13:30,0.432,0.251,0.442,0.408,0.378,0.205,0.179,south,15.9,No
2016/06/12,13:40,0.428,0.249,0.440,0.407,0.376,0.206,0.178,south,15.5,No
2016/06/12,13:50,0.425,0.249,0.442,0.404,0.375,0.205,0.179,south,14.0,No
2016/06/12,14:00,0.423,0.252,0.449,0.403,0.376,0.206,0.180,south,15.2,No
2016/06/12,14:10,0.429,0.252,0.450,0.408,0.381,0.205,0.179,south,14.0,No
2016/06/12,14:20,0.429,0.251,0.447,0.410,0.380,0.205,0.178,south,15.0,No
2016/06/12,14:30,0.429,0.251,0.445,0.405,0.376,0.206,0.180,south,13.9,No
2016/06/12,14:40,0.424,0.252,0.442,0.404,0.375,0.206,0.180,south,14.2,No
2016/06/12,14:50,0.428,0.252,0.449,0.408,0.379,0.205,0.179,south,13.9,No
2016/06/12,15:00,0.431,0.252,0.448,0.409,0.379,0.205,0.178,south,13.5,No
2016/06/12,15:10,0.427,0.249,0.445,0.406,0.376,0.207,0.179,south,12.4,No
2016/06/12,15:20,0.426,0.252,0.442,0.405,0.375,0.204,0.180,south,12.2,No
2016/06/12,15:30,0.431,0.252,0.449,0.409,0.378,0.205,0.178,south,12.9,No
2016/06/12,15:40,0.431,0.251,0.449,0.407,0.381,0.205,0.180,south,12.6,No
2016/06/12,15:50,0.426,0.249,0.446,0.404,0.379,0.206,0.180,south,12.8,No
2016/06/12,16:00,0.427,0.252,0.442,0.409,0.376,0.206,0.179,south,13.7,No
2016/06/12,16:10,0.431,0.252,0.445,0.408,0.374,0.205,0.179,south,11.7,No
2016/06/12,16:20,0.429,0.251,0.449,0.405,0.380,0.207,0.181,south,12.2,No
2016/06/12,16:30,0.425,0.252,0.446,0.406,0.380,0.205,0.179,south,11.8,No
2016/06/12,16:40,0.431,0.253,0.445,0.410,0.377,0.206,0.180,south,11.4,No
2016/06/12,16:50,0.429,0.251,0.449,0.406,0.374,0.206,0.180,south-southwest,12.9,No
2016/06/12,17:00,0.427,0.250,0.448,0.404,0.378,0.205,0.179,south,11.8,No
2016/06/12,17:10,0.430,0.254,0.442,0.410,0.381,0.206,0.181,south,11.9,No
2016/06/12,17:20,0.431,0.251,0.448,0.407,0.376,0.205,0.180,south,11.7,No
2016/06/12,17:30,0.428,0.252,0.448,0.406,0.379,0.207,0.179,south,10.5,No
2016/06/12,17:40,0.430,0.254,0.444,0.409,0.379,0.206,0.180,south,9.3,No
2016/06/12,17:50,0.430,0.252,0.446,0.406,0.377,0.206,0.180,south-southwest,10.1,No
2016/06/12,18:00,0.426,0.252,0.447,0.406,0.379,0.205,0.178,south,8.6,No
2016/06/12,18:10,0.431,0.252,0.444,0.409,0.381,0.205,0.180,south,8.6,No
2016/06/12,18:20,0.429,0.251,0.446,0.405,0.377,0.205,0.180,south,9.5,No
2016/06/12,18:30,0.426,0.253,0.448,0.405,0.378,0.206,0.180,south-southwest,8.9,No
2016/06/12,18:40,0.431,0.253,0.444,0.409,0.380,0.204,0.180,south,8.6,No
2016/06/12,18:50,0.430,0.252,0.446,0.405,0.376,0.205,0.179,south,9.2,No
2016/06/12,19:00,0.425,0.253,0.449,0.407,0.379,0.206,0.180,south,8.9,No
2016/06/12,19:10,0.431,0.252,0.445,0.409,0.378,0.205,0.181,south,9.0,No
2016/06/12,19:20,0.430,0.250,0.447,0.406,0.376,0.205,0.179,south,9.6,No
2016/06/12,19:30,0.427,0.252,0.448,0.408,0.381,0.205,0.181,south,10.7,No
2016/06/12,19:40,0.430,0.251,0.444,0.407,0.378,0.204,0.180,south,10.9,No
2016/06/12,19:50,0.427,0.252,0.448,0.405,0.377,0.206,0.180,south,11.4,No
2016/06/12,20:00,0.430,0.252,0.447,0.411,0.380,0.206,0.181,south,11.1,No
2016/06/12,20:10,0.429,0.251,0.444,0.407,0.377,0.205,0.179,south,10.3,No
2016/06/12,20:20,0.427,0.253,0.450,0.405,0.377,0.206,0.180,south,10.0,No
2016/06/12,20:30,0.429,0.252,0.448,0.409,0.379,0.205,0.180,south,9.3,No
2016/06/12,20:40,0.429,0.251,0.446,0.406,0.376,0.207,0.180,south,8.9,No
2016/06/12,20:50,0.426,0.253,0.449,0.407,0.379,0.206,0.180,south,9.5,No
2016/06/12,21:00,0.430,0.251,0.446,0.409,0.378,0.205,0.179,south-southwest,9.4,No
2016/06/12,21:10,0.428,0.252,0.446,0.405,0.377,0.206,0.180,south,9.6,No
2016/06/12,21:20,0.431,0.253,0.450,0.410,0.379,0.205,0.180,south-southwest,9.5,No
2016/06/12,21:30,0.429,0.251,0.444,0.406,0.375,0.206,0.179,south-southwest,9.8,No
2016/06/12,21:40,0.428,0.253,0.447,0.407,0.378,0.205,0.180,south-southwest,10.0,No
2016/06/12,21:50,0.431,0.252,0.449,0.409,0.378,0.205,0.180,south-southwest,9.3,No
2016/06/12,22:00,0.427,0.251,0.444,0.406,0.378,0.206,0.181,south,8.9,No
2016/06/12,22:10,0.429,0.254,0.449,0.407,0.380,0.206,0.178,south-southwest,8.6,No
2016/06/12,22:20,0.430,0.250,0.448,0.408,0.375,0.207,0.179,south,8.0,No
2016/06/12,22:30,0.425,0.252,0.445,0.406,0.379,0.205,0.180,south-southwest,8.1,No
2016/06/12,22:40,0.430,0.252,0.450,0.409,0.380,0.205,0.180,south-southwest,7.5,No
2016/06/12,22:50,0.429,0.251,0.446,0.406,0.376,0.205,0.180,south-southwest,7.5,No
2016/06/12,23:00,0.428,0.251,0.445,0.405,0.378,0.205,0.180,south-southwest,9.0,No
2016/06/12,23:10,0.430,0.251,0.448,0.410,0.377,0.205,0.180,south,8.4,No
2016/06/12,23:20,0.426,0.252,0.445,0.405,0.378,0.205,0.182,south-southwest,8.7,No
2016/06/12,23:30,0.431,0.253,0.448,0.408,0.380,0.204,0.180,south-southwest,8.0,No
2016/06/12,23:40,0.427,0.252,0.448,0.407,0.377,0.205,0.179,south-southwest,8.1,No
2016/06/12,23:50,0.429,0.252,0.447,0.405,0.378,0.205,0.180,south,7.3,No
